User: anonymous   Login
Location: Unspecified
(0.0000°N, 0.0000°E)
Time: 16:15:47
(UTC+02:00)
Language:

Iridium 75 - Orbit

View from above orbital plane
View from above orbital plane
View from above satellite
View from above satellite

Ground track
Ground track

The orbit data is extracted from the following two-line orbital elements,

1 25346U 98032E   16147.22169137  .00000182  00000-0  58050-4 0  9995
2 25346  86.3983  25.8845 0002144  86.1168  51.6529 14.34219565944209
Epoch (UTC): 26 May 2016 05:19:14
Eccentricity: 0.0002144
inclination: 86.3983°
perigee height: 776 km
apogee height: 779 km
right ascension of ascending node: 25.8845°
argument of perigee: 86.1168°
revolutions per day: 14.34219565
mean anomaly at epoch: 51.6529°
orbit number at epoch: 94420

The dashed part of the orbit path shows where the satellite is in the earth's shadow,  

DLR